Hourly Weather Golczew

Today, 15 May, Saturday

Time Temperature Precipitation Wind Pressure Humidity
00:00 +6°C° 0.1 mm 4 mps 748 mmHg 95%
01:00 +7°C° 0 mm 3 mps 748 mmHg 95%
02:00 +5°C° 0 mm 3 mps 748 mmHg 95%
03:00 +5°C° 0 mm 3 mps 748 mmHg 95%
04:00 +5°C° 0 mm 2 mps 748 mmHg 95%
05:00 +7°C° 0 mm 2 mps 749 mmHg 91%
06:00 +8°C° 0 mm 2 mps 749 mmHg 88%
07:00 +10°C° 0 mm 2 mps 749 mmHg 84%
08:00 +13°C° 0 mm 2 mps 749 mmHg 78%
09:00 +13°C° 0 mm 3 mps 749 mmHg 73%
10:00 +16°C° 0 mm 3 mps 748 mmHg 67%
11:00 +17°C° 0.4 mm 3 mps 748 mmHg 66%
12:00 +17°C° 0.4 mm 4 mps 748 mmHg 64%
13:00 +18°C° 0.4 mm 4 mps 748 mmHg 63%
14:00 +17°C° 0.3 mm 4 mps 747 mmHg 64%
15:00 +17°C° 0.3 mm 4 mps 747 mmHg 66%
16:00 +17°C° 0.3 mm 3 mps 747 mmHg 68%
17:00 +16°C° 0.4 mm 3 mps 747 mmHg 72%
18:00 +14°C° 0.4 mm 3 mps 747 mmHg 77%
19:00 +12°C° 0.4 mm 3 mps 746 mmHg 82%
20:00 +11°C° 0 mm 3 mps 746 mmHg 84%
21:00 +11°C° 0 mm 3 mps 746 mmHg 86%
22:00 +10°C° 0 mm 2 mps 746 mmHg 89%
23:00 +9°C° 0 mm 2 mps 746 mmHg 90%

Tomorrow, 16 May, Sunday

Time Temperature Precipitation Wind Pressure Humidity
00:00 +9°C° 0 mm 2 mps 746 mmHg 91%
01:00 +8°C° 0 mm 3 mps 746 mmHg 92%
02:00 +8°C° 0 mm 2 mps 746 mmHg 93%
03:00 +8°C° 0 mm 2 mps 746 mmHg 94%
04:00 +9°C° 0 mm 2 mps 746 mmHg 95%
05:00 +9°C° 0 mm 3 mps 746 mmHg 93%
06:00 +10°C° 0 mm 4 mps 746 mmHg 90%
07:00 +10°C° 0 mm 4 mps 747 mmHg 87%
08:00 +12°C° 0.1 mm 4 mps 747 mmHg 81%
09:00 +13°C° 0.1 mm 5 mps 747 mmHg 75%
10:00 +14°C° 0.1 mm 5 mps 747 mmHg 68%
11:00 +14°C° 0.2 mm 5 mps 746 mmHg 68%
12:00 +14°C° 0.2 mm 5 mps 746 mmHg 68%
13:00 +14°C° 0.2 mm 5 mps 746 mmHg 68%
14:00 +14°C° 0.1 mm 4 mps 746 mmHg 67%
15:00 +15°C° 0.1 mm 4 mps 746 mmHg 66%
16:00 +15°C° 0.1 mm 4 mps 746 mmHg 65%
17:00 +14°C° 0.1 mm 3 mps 746 mmHg 71%
18:00 +13°C° 0.1 mm 3 mps 746 mmHg 77%
19:00 +13°C° 0.1 mm 2 mps 745 mmHg 82%
20:00 +12°C° 0 mm 2 mps 745 mmHg 84%
21:00 +10°C° 0 mm 2 mps 745 mmHg 86%
22:00 +9°C° 0 mm 2 mps 745 mmHg 88%
23:00 +9°C° 0.1 mm 2 mps 745 mmHg 90%

Day after tomorrow, 17 May, Monday

Time Temperature Precipitation Wind Pressure Humidity
00:00 +8°C° 0.1 mm 2 mps 745 mmHg 92%
01:00 +8°C° 0.1 mm 2 mps 745 mmHg 94%
02:00 +8°C° 0 mm 2 mps 745 mmHg 95%
03:00 +8°C° 0 mm 2 mps 745 mmHg 95%
04:00 +8°C° 0 mm 2 mps 745 mmHg 96%
05:00 +9°C° 0 mm 2 mps 745 mmHg 93%
06:00 +10°C° 0 mm 3 mps 746 mmHg 90%
07:00 +10°C° 0 mm 3 mps 746 mmHg 87%
08:00 +12°C° 0.1 mm 3 mps 746 mmHg 81%
09:00 +13°C° 0.1 mm 4 mps 746 mmHg 75%
10:00 +14°C° 0.1 mm 5 mps 746 mmHg 68%
11:00 +15°C° 0.3 mm 5 mps 746 mmHg 67%
12:00 +15°C° 0.3 mm 5 mps 746 mmHg 65%
13:00 +16°C° 0.3 mm 5 mps 746 mmHg 64%
14:00 +15°C° 0.2 mm 5 mps 746 mmHg 65%
15:00 +15°C° 0.2 mm 5 mps 746 mmHg 67%
16:00 +14°C° 0.2 mm 5 mps 746 mmHg 68%
17:00 +14°C° 0.1 mm 5 mps 746 mmHg 74%
18:00 +13°C° 0.1 mm 4 mps 746 mmHg 79%
19:00 +12°C° 0.1 mm 4 mps 746 mmHg 84%
20:00 +11°C° 0 mm 3 mps 746 mmHg 87%
21:00 +10°C° 0 mm 3 mps 747 mmHg 91%
22:00 +9°C° 0 mm 3 mps 747 mmHg 95%
23:00 +8°C° 0 mm 4 mps 747 mmHg 95%

18 May, Tuesday

Time Temperature Precipitation Wind Pressure Humidity
00:00 +8°C° 0 mm 4 mps 747 mmHg 95%
01:00 +8°C° 0 mm 4 mps 747 mmHg 94%
02:00 +8°C° 0 mm 4 mps 747 mmHg 95%
03:00 +7°C° 0 mm 4 mps 747 mmHg 95%
04:00 +7°C° 0 mm 4 mps 747 mmHg 95%
05:00 +8°C° 0 mm 4 mps 747 mmHg 93%
06:00 +8°C° 0 mm 5 mps 747 mmHg 91%
07:00 +8°C° 0 mm 5 mps 748 mmHg 89%
08:00 +9°C° 0 mm 5 mps 748 mmHg 83%
09:00 +10°C° 0 mm 5 mps 748 mmHg 78%
10:00 +12°C° 0 mm 5 mps 749 mmHg 72%
11:00 +13°C° 0 mm 5 mps 749 mmHg 67%
12:00 +14°C° 0 mm 5 mps 749 mmHg 63%
13:00 +15°C° 0 mm 5 mps 749 mmHg 58%
14:00 +15°C° 0 mm 5 mps 749 mmHg 60%
15:00 +14°C° 0 mm 5 mps 749 mmHg 62%
16:00 +14°C° 0 mm 4 mps 750 mmHg 64%
17:00 +13°C° 0 mm 4 mps 750 mmHg 68%
18:00 +13°C° 0 mm 3 mps 750 mmHg 72%
19:00 +12°C° 0 mm 3 mps 750 mmHg 76%
20:00 +11°C° 0 mm 3 mps 750 mmHg 81%
21:00 +9°C° 0 mm 3 mps 751 mmHg 86%
22:00 +8°C° 0 mm 2 mps 751 mmHg 91%
23:00 +7°C° 0 mm 3 mps 751 mmHg 92%

19 May, Wednesday

Time Temperature Precipitation Wind Pressure Humidity
00:00 +7°C° 0 mm 3 mps 752 mmHg 93%
01:00 +7°C° 0 mm 3 mps 752 mmHg 95%
02:00 +5°C° 0 mm 3 mps 752 mmHg 95%
03:00 +5°C° 0 mm 3 mps 752 mmHg 95%
04:00 +4°C° 0 mm 4 mps 752 mmHg 95%
05:00 +5°C° 0 mm 4 mps 753 mmHg 90%
06:00 +7°C° 0 mm 4 mps 753 mmHg 85%
07:00 +8°C° 0 mm 5 mps 753 mmHg 80%
08:00 +9°C° 0.1 mm 5 mps 753 mmHg 75%
09:00 +10°C° 0.1 mm 5 mps 753 mmHg 69%
10:00 +13°C° 0.1 mm 6 mps 753 mmHg 64%
11:00 +13°C° 0.1 mm 5 mps 753 mmHg 60%
12:00 +14°C° 0.1 mm 5 mps 753 mmHg 56%
13:00 +15°C° 0.1 mm 5 mps 753 mmHg 52%
14:00 +14°C° 0.1 mm 5 mps 753 mmHg 58%
15:00 +14°C° 0.1 mm 5 mps 753 mmHg 63%
16:00 +13°C° 0.1 mm 5 mps 753 mmHg 69%
17:00 +12°C° 0.4 mm 5 mps 753 mmHg 74%
18:00 +11°C° 0.4 mm 4 mps 753 mmHg 79%
19:00 +11°C° 0.4 mm 3 mps 753 mmHg 85%
20:00 +10°C° 0.2 mm 3 mps 753 mmHg 88%
21:00 +9°C° 0.2 mm 3 mps 754 mmHg 91%
22:00 +8°C° 0.2 mm 3 mps 754 mmHg 94%
23:00 +7°C° 0 mm 3 mps 754 mmHg 95%

20 May, Thursday

Time Temperature Precipitation Wind Pressure Humidity
00:00 +7°C° 0 mm 3 mps 754 mmHg 95%
01:00 +7°C° 0 mm 3 mps 754 mmHg 96%
02:00 +5°C° 0 mm 3 mps 754 mmHg 96%
03:00 +5°C° 0 mm 3 mps 754 mmHg 96%
04:00 +4°C° 0 mm 3 mps 754 mmHg 96%
05:00 +6°C° 0 mm 4 mps 754 mmHg 93%
06:00 +7°C° 0 mm 4 mps 755 mmHg 90%
07:00 +8°C° 0 mm 5 mps 755 mmHg 87%
08:00 +9°C° 0.1 mm 5 mps 755 mmHg 80%
09:00 +10°C° 0.1 mm 6 mps 754 mmHg 73%
10:00 +13°C° 0.1 mm 6 mps 754 mmHg 65%
11:00 +13°C° 0.1 mm 5 mps 754 mmHg 62%
12:00 +14°C° 0.1 mm 5 mps 754 mmHg 59%
13:00 +14°C° 0.1 mm 5 mps 753 mmHg 55%
14:00 +15°C° 0 mm 5 mps 753 mmHg 56%
15:00 +15°C° 0 mm 5 mps 753 mmHg 56%
16:00 +15°C° 0 mm 5 mps 752 mmHg 56%
17:00 +14°C° 0.2 mm 4 mps 752 mmHg 64%
18:00 +13°C° 0.2 mm 3 mps 751 mmHg 72%
19:00 +12°C° 0.2 mm 3 mps 751 mmHg 80%
20:00 +11°C° 0.3 mm 3 mps 751 mmHg 84%
21:00 +10°C° 0.3 mm 3 mps 751 mmHg 88%
22:00 +10°C° 0.3 mm 3 mps 750 mmHg 92%
23:00 +9°C° 0.2 mm 3 mps 750 mmHg 91%
Show more